GW6028 Weather Reports


Display with metric or nautical units.
time (UTC)temp
F
wind
direction
speed
MPH
gust
MPH
rain 1hr
in
rain 24hr
in
rain mn
in
humidity
%
barometer
mb
20260507223503 62 342 5.0 10.0 0.00 0.16 0.01 32 1005.5
20260507223006 62 300 4.0 14.0 0.00 0.16 0.01 35 1005.4
20260507222506 62 257 8.0 14.0 0.00 0.16 0.01 33 1005.3
20260507222007 62 304 6.0 12.0 0.00 0.17 0.01 33 1005.4
20260507221508 62 263 6.0 14.0 0.00 0.17 0.01 31 1005.3
20260507221003 62 292 7.0 15.0 0.00 0.18 0.01 32 1005.2
20260507220506 62 308 8.0 15.0 0.00 0.18 0.01 32 1005.2
20260507220014 62 271 4.0 14.0 0.00 0.18 0.01 33 1005.2
20260507215507 62 297 7.0 15.0 0.00 0.18 0.01 32 1005.1
20260507215004 62 319 8.0 15.0 0.00 0.18 0.01 32 1005.1
20260507214515 63 63 6.0 13.0 0.00 0.18 0.01 31 1005.0
20260507214009 63 39 5.0 10.0 0.00 0.19 0.01 32 1005.0
20260507213507 64 283 5.0 14.0 0.00 0.19 0.01 31 1004.9
20260507213003 63 333 5.0 14.0 0.00 0.19 0.01 33 1005.0
20260507212503 64 316 5.0 12.0 0.00 0.19 0.01 31 1005.0
20260507212003 63 6 3.0 12.0 0.00 0.19 0.01 30 1005.0
20260507211508 63 288 6.0 18.0 0.00 0.20 0.01 31 1005.0
20260507211004 63 349 10.0 18.0 0.00 0.20 0.01 31 1005.0
20260507210504 63 276 8.0 15.0 0.00 0.21 0.01 33 1005.0
20260507210010 63 278 7.0 16.0 0.00 0.21 0.01 32 1005.0
20260507205504 63 274 9.0 16.0 0.00 0.22 0.01 32 1005.0
20260507205004 63 300 5.0 14.0 0.00 0.23 0.01 31 1004.9
20260507204516 63 297 6.0 14.0 0.00 0.23 0.01 31 1004.9
20260507204005 64 267 4.0 17.0 0.00 0.24 0.01 33 1005.1
20260507203505 63 269 6.0 17.0 0.00 0.25 0.01 33 1005.1
20260507203018 64 238 4.0 14.0 0.00 0.26 0.01 32 1005.1
20260507202508 64 326 6.0 14.0 0.00 0.27 0.01 31 1005.1
20260507202010 64 18 5.0 12.0 0.00 0.28 0.01 30 1005.0
20260507201506 64 266 6.0 12.0 0.00 0.29 0.01 32 1005.0
20260507201004 64 54 5.0 11.0 0.00 0.29 0.01 32 1005.0
20260507200503 64 306 6.0 11.0 0.00 0.29 0.01 31 1005.1
20260507200010 63 288 3.0 14.0 0.00 0.29 0.01 32 1005.1
20260507195504 63 288 3.0 14.0 0.00 0.29 0.01 33 1005.2
20260507195005 63 292 7.0 13.0 0.00 0.29 0.01 32 1005.2
20260507194514 63 313 8.0 14.0 0.00 0.30 0.01 33 1005.1
20260507194004 63 319 6.0 14.0 0.00 0.30 0.01 32 1005.1
20260507193504 63 271 7.0 15.0 0.00 0.31 0.01 32 1005.2
20260507193020 63 258 5.0 15.0 0.00 0.31 0.01 33 1005.3
20260507192509 63 335 7.0 16.0 0.00 0.31 0.01 34 1005.3
20260507192007 63 312 5.0 16.0 0.00 0.31 0.01 33 1005.3
20260507191522 63 7 7.0 14.0 0.00 0.32 0.01 32 1005.4
20260507191007 63 281 7.0 14.0 0.00 0.32 0.01 33 1005.5
20260507190510 63 28 5.0 16.0 0.00 0.32 0.01 33 1005.6
20260507190007 63 283 5.0 16.0 0.00 0.32 0.01 32 1005.5
20260507185503 63 288 9.0 16.0 0.00 0.32 0.01 32 1005.6
20260507185003 63 290 9.0 14.0 0.00 0.32 0.01 32 1005.5
20260507184513 63 212 8.0 12.0 0.00 0.32 0.01 32 1005.5
20260507184005 63 8 7.0 13.0 0.00 0.32 0.01 32 1005.6
20260507183506 63 322 7.0 17.0 0.00 0.32 0.01 33 1005.6
20260507183016 63 269 8.0 17.0 0.00 0.32 0.01 34 1005.7
20260507182506 63 327 4.0 14.0 0.00 0.32 0.01 33 1005.7
20260507182008 63 345 7.0 13.0 0.00 0.32 0.01 31 1005.6
20260507181518 63 251 6.0 13.0 0.00 0.32 0.01 30 1005.7
20260507181007 63 295 9.0 13.0 0.00 0.32 0.01 33 1005.7
20260507180508 63 281 9.0 13.0 0.00 0.32 0.01 35 1005.8
20260507180020 63 322 5.0 12.0 0.00 0.32 0.01 35 1005.7
20260507175511 63 78 6.0 13.0 0.00 0.32 0.01 34 1005.6
20260507175009 63 296 6.0 16.0 0.00 0.32 0.01 35 1005.7
20260507174510 63 288 7.0 19.0 0.00 0.32 0.01 35 1005.6
20260507174003 63 350 6.0 19.0 0.00 0.32 0.01 35 1005.6
20260507173504 63 260 10.0 18.0 0.00 0.32 0.01 36 1005.7
20260507173012 63 278 4.0 17.0 0.00 0.32 0.01 38 1005.6
20260507172503 62 269 8.0 17.0 0.00 0.32 0.01 37 1005.7
20260507172006 63 280 9.0 16.0 0.00 0.32 0.01 40 1005.7
20260507171514 62 311 4.0 16.0 0.00 0.32 0.01 41 1005.8
20260507171006 62 306 7.0 13.0 0.00 0.32 0.01 43 1005.8
20260507170507 63 232 4.0 11.0 0.00 0.32 0.01 45 1005.9
20260507170022 61 303 6.0 11.0 0.00 0.32 0.01 48 1006.1
20260507165506 61 235 7.0 15.0 0.00 0.32 0.01 49 1006.1
20260507165007 60 328 8.0 15.0 0.00 0.32 0.01 51 1006.2
20260507164522 61 278 7.0 15.0 0.00 0.32 0.01 50 1006.2
20260507164010 62 218 5.0 12.0 0.00 0.32 0.01 48 1006.2
20260507163508 61 279 6.0 13.0 0.00 0.32 0.01 49 1006.3
20260507163010 61 313 5.0 15.0 0.00 0.32 0.01 51 1006.4
20260507162503 60 323 6.0 16.0 0.00 0.32 0.01 53 1006.4
20260507162004 60 215 7.0 16.0 0.00 0.32 0.01 53 1006.5
20260507161514 60 271 7.0 14.0 0.00 0.32 0.01 51 1006.5
20260507161004 61 281 5.0 11.0 0.00 0.32 0.01 50 1006.5
20260507160506 61 275 3.0 14.0 0.00 0.32 0.01 50 1006.5
20260507160019 60 309 5.0 14.0 0.00 0.32 0.01 53 1006.5
20260507155512 59 311 3.0 12.0 0.00 0.32 0.01 51 1006.6
20260507155008 60 314 6.0 11.0 0.00 0.32 0.01 52 1006.5
20260507154522 60 335 3.0 9.0 0.00 0.32 0.01 50 1006.6
20260507154010 60 354 4.0 13.0 0.00 0.32 0.01 50 1006.7
20260507153505 60 309 5.0 13.0 0.00 0.32 0.01 48 1006.7
20260507153006 60 310 3.0 13.0 0.00 0.32 0.01 50 1006.7
20260507152504 60 285 4.0 13.0 0.00 0.32 0.01 50 1006.8
20260507152004 59 9 5.0 13.0 0.00 0.32 0.01 49 1006.8
20260507151512 60 297 8.0 13.0 0.00 0.32 0.01 51 1007.0
20260507151004 60 293 5.0 9.0 0.00 0.32 0.01 52 1007.1
20260507150504 59 146 4.0 9.0 0.00 0.32 0.01 51 1007.2
20260507150018 59 298 5.0 9.0 0.00 0.32 0.01 52 1007.3
20260507145504 59 285 4.0 9.0 0.00 0.32 0.01 52 1007.3
20260507145006 59 304 3.0 10.0 0.00 0.32 0.01 51 1007.3
20260507144518 59 255 4.0 12.0 0.00 0.32 0.01 52 1007.3
20260507144007 59 298 6.0 12.0 0.00 0.32 0.01 52 1007.3
20260507143507 59 259 4.0 9.0 0.00 0.32 0.01 52 1007.3
20260507143026 59 272 3.0 8.0 0.00 0.32 0.01 54 1007.3
20260507142502 59 60 4.0 10.0 0.00 0.32 0.01 53 1007.2
20260507142003 58 288 4.0 10.0 0.00 0.32 0.01 55 1007.3
20260507141506 58 267 1.0 5.0 0.00 0.32 0.01 54 1007.2
20260507141006 58 268 2.0 6.0 0.00 0.32 0.01 55 1007.2
20260507140504 58 1 2.0 6.0 0.00 0.32 0.01 56 1007.3
20260507140023 58 316 1.0 5.0 0.00 0.32 0.01 57 1007.2
20260507135506 57 314 2.0 8.0 0.00 0.32 0.01 57 1007.2
20260507135005 56 10 4.0 8.0 0.00 0.32 0.01 59 1007.2
20260507134514 57 273 3.0 7.0 0.00 0.32 0.01 59 1007.3
20260507134004 56 340 4.0 7.0 0.00 0.32 0.01 59 1007.4
20260507133510 56 324 2.0 7.0 0.00 0.32 0.01 61 1007.5
20260507133021 56 309 3.0 7.0 0.00 0.32 0.01 62 1007.6
20260507132508 56 280 3.0 7.0 0.00 0.32 0.01 61 1007.6
20260507132008 56 309 2.0 6.0 0.00 0.32 0.01 63 1007.7
20260507131532 55 359 2.0 6.0 0.00 0.32 0.01 63 1007.7
20260507131004 55 271 2.0 7.0 0.00 0.32 0.01 64 1007.8
20260507130505 55 340 3.0 10.0 0.00 0.32 0.01 65 1007.8
20260507130008 54 310 4.0 10.0 0.00 0.32 0.01 66 1007.8
20260507125504 54 351 3.0 8.0 0.00 0.32 0.01 67 1007.8
20260507125006 54 328 2.0 8.0 0.00 0.32 0.01 68 1007.8
20260507124515 53 319 4.0 8.0 0.00 0.32 0.01 69 1007.8
20260507124009 53 262 2.0 8.0 0.00 0.32 0.01 69 1007.9
20260507123506 53 285 3.0 8.0 0.00 0.32 0.01 69 1007.8
20260507123022 52 269 3.0 8.0 0.00 0.32 0.01 70 1007.8
20260507122507 52 288 4.0 7.0 0.00 0.32 0.01 71 1007.9
20260507122010 52 262 2.0 7.0 0.00 0.32 0.01 74 1008.0
20260507121522 51 276 3.0 7.0 0.00 0.32 0.01 74 1008.0
20260507121008 51 283 3.0 7.0 0.00 0.32 0.01 74 1008.0
20260507120508 51 298 4.0 10.0 0.00 0.32 0.01 76 1007.9
20260507120026 50 352 3.0 10.0 0.00 0.32 0.01 76 1007.8
20260507115506 50 321 4.0 11.0 0.00 0.32 0.01 77 1007.9
20260507115008 50 354 2.0 11.0 0.00 0.32 0.01 78 1007.9
20260507114511 49 256 4.0 9.0 0.00 0.32 0.01 78 1007.8
20260507114005 49 312 4.0 9.0 0.00 0.32 0.01 80 1007.7
20260507113506 49 318 3.0 10.0 0.00 0.32 0.01 80 1007.5
20260507113012 49 290 4.0 10.0 0.00 0.32 0.01 80 1007.4
20260507112504 48 359 5.0 9.0 0.00 0.32 0.01 81 1007.2
20260507112006 48 312 2.0 8.0 0.00 0.32 0.01 81 1007.4
20260507111520 48 305 3.0 7.0 0.00 0.32 0.01 82 1007.7
20260507111007 48 288 2.0 8.0 0.00 0.32 0.01 82 1007.9
20260507110506 48 281 3.0 8.0 0.00 0.32 0.01 82 1007.8
20260507110026 48 34 2.0 7.0 0.00 0.32 0.01 83 1007.8
20260507105508 48 293 2.0 7.0 0.00 0.32 0.01 83 1007.4
20260507105006 48 288 3.0 7.0 0.00 0.32 0.01 83 1007.3
20260507104528 48 298 3.0 7.0 0.00 0.32 0.01 83 1007.2
20260507104007 48 314 3.0 6.0 0.00 0.32 0.01 83 1007.1
20260507103503 48 240 2.0 8.0 0.00 0.32 0.01 83 1007.2
20260507103015 48 273 3.0 8.0 0.00 0.32 0.01 83 1007.0
20260507102506 48 295 3.0 7.0 0.00 0.32 0.01 83 1007.3
20260507102008 48 256 4.0 7.0 0.00 0.32 0.01 83 1007.3
20260507101535 48 57 3.0 7.0 0.00 0.32 0.01 83 1007.2
20260507101005 48 353 4.0 7.0 0.00 0.32 0.01 83 1007.1
20260507100507 48 316 3.0 8.0 0.00 0.32 0.01 83 1007.2
20260507100031 48 278 3.0 8.0 0.00 0.32 0.01 83 1007.6
20260507095508 48 274 4.0 8.0 0.00 0.32 0.01 83 1007.4
20260507095012 48 247 4.0 8.0 0.00 0.32 0.01 83 1007.1
20260507094525 48 313 4.0 7.0 0.00 0.32 0.01 83 1007.3
20260507094010 48 346 3.0 7.0 0.00 0.32 0.01 84 1007.3
20260507093508 48 252 2.0 9.0 0.00 0.32 0.01 83 1007.2
20260507093032 48 266 4.0 9.0 0.00 0.32 0.01 83 1007.3
20260507092514 48 252 4.0 9.0 0.00 0.32 0.01 83 1007.3
20260507092004 48 357 4.0 9.0 0.00 0.32 0.01 83 1007.3
20260507091533 48 294 5.0 8.0 0.00 0.32 0.01 83 1007.4
20260507091007 48 322 3.0 9.0 0.00 0.32 0.01 83 1007.2
20260507090507 49 299 4.0 9.0 0.00 0.32 0.01 84 1007.1
20260507090018 49 296 2.0 7.0 0.01 0.32 0.01 84 1007.0
20260507085506 49 294 4.0 8.0 0.01 0.32 0.01 84 1006.7
20260507085008 49 307 3.0 8.0 0.01 0.32 0.01 84 1007.0
20260507084527 49 234 3.0 8.0 0.01 0.32 0.01 84 1007.0
20260507084012 49 31 3.0 8.0 0.01 0.32 0.01 83 1006.8
20260507083026 49 278 3.0 9.0 0.01 0.32 0.01 83 1006.8
20260507082508 49 283 4.0 9.0 0.01 0.32 0.01 83 1006.6
20260507081538 50 290 4.0 12.0 0.01 0.32 0.01 82 1006.8
20260507081007 50 273 6.0 12.0 0.01 0.32 0.01 82 1006.8
20260507080017 50 317 4.0 13.0 0.00 0.31 0.00 81 1006.5
20260507075508 50 288 6.0 13.0 0.00 0.31 0.00 81 1006.8
20260507075012 50 89 5.0 13.0 0.00 0.31 0.00 81 1006.8
20260507074521 50 321 3.0 10.0 0.00 0.31 0.00 81 1006.5
20260507074005 50 338 4.0 9.0 0.00 0.31 0.00 82 1006.6
20260507073023 51 326 5.0 13.0 0.00 0.31 0.00 82 1006.2
20260507072511 51 276 7.0 13.0 0.00 0.31 0.00 82 1006.2
20260507072009 51 270 4.0 14.0 0.00 0.31 0.00 83 1006.2
20260507071526 51 304 5.0 14.0 0.00 0.31 0.00 83 1006.3
20260507071008 51 261 7.0 13.0 0.00 0.31 0.00 83 1006.5
20260507070509 51 281 6.0 13.0 0.00 0.31 0.00 83 1006.1
20260507070026 51 284 6.0 12.0 0.00 0.31 0.00 84 1006.1
20260507065513 51 291 6.0 10.0 0.00 0.31 0.00 85 1006.2
20260507065004 52 248 5.0 12.0 0.00 0.31 0.00 85 1006.1
20260507064519 52 278 6.0 12.0 0.00 0.31 0.00 85 1006.1
20260507064008 52 273 6.0 11.0 0.00 0.31 0.00 85 1005.8
20260507063507 52 293 4.0 12.0 0.00 0.31 0.00 85 1005.9
20260507063022 52 297 4.0 12.0 0.00 0.31 0.00 85 1005.8
20260507062512 52 281 6.0 10.0 0.00 0.31 0.00 85 1006.0
20260507061516 52 273 5.0 10.0 0.00 0.31 0.00 85 1005.9
20260507060007 52 302 6.0 11.0 0.00 0.31 0.00 85 1006.2
20260507054514 53 276 5.0 9.0 0.00 0.31 0.00 84 1006.1
20260507053018 53 319 7.0 13.0 0.00 0.31 0.00 82 1006.5
20260507052509 53 276 7.0 10.0 0.00 0.31 0.00 83 1006.4
20260507051505 53 316 6.0 14.0 0.00 0.31 0.00 83 1006.3
20260507051002 54 305 6.0 12.0 0.00 0.31 0.00 83 1006.4
20260507050502 54 310 6.0 14.0 0.00 0.31 0.00 83 1006.5
20260507050011 54 285 7.0 14.0 0.00 0.31 0.00 83 1006.4
20260507044526 55 311 5.0 11.0 0.00 0.31 0.00 85 1005.9
20260507041523 57 297 7.0 11.0 0.00 0.31 0.00 87 1006.2
20260507040010 57 293 8.0 16.0 0.00 0.31 0.00 87 1005.7
20260507035503 58 290 4.0 12.0 0.00 0.31 0.31 89 1005.7
20260507035004 58 287 7.0 12.0 0.00 0.31 0.31 89 1005.7
20260507034509 58 287 5.0 14.0 0.00 0.31 0.31 89 1005.6
20260507033015 59 264 3.0 9.0 0.00 0.31 0.31 91 1005.3
20260507031520 59 217 3.0 8.0 0.00 0.31 0.31 91 1005.0
20260507030510 59 196 5.0 11.0 0.00 0.31 0.31 90 1005.0
20260507025007 59 210 5.0 12.0 0.00 0.31 0.31 90 1005.1
20260507024506 59 229 4.0 9.0 0.00 0.31 0.31 90 1005.1
20260507024003 59 150 5.0 9.0 0.00 0.31 0.31 90 1005.1
20260507022004 59 205 5.0 11.0 0.00 0.31 0.31 90 1005.0
20260507021516 59 224 4.0 11.0 0.00 0.31 0.31 90 1005.1
20260507021010 59 216 5.0 11.0 0.00 0.31 0.31 90 1005.1
20260507015507 59 180 5.0 10.0 0.00 0.31 0.31 90 1005.3
20260507014527 59 219 5.0 11.0 0.00 0.31 0.31 90 1005.3
20260507013008 59 227 5.0 13.0 0.00 0.31 0.31 91 1005.4
20260507012507 59 245 6.0 11.0 0.00 0.31 0.31 91 1005.5
20260507011511 59 232 4.0 11.0 0.00 0.31 0.31 91 1005.4
20260507010504 59 233 5.0 11.0 0.00 0.31 0.31 91 1005.5
20260507005508 59 149 5.0 10.0 0.00 0.31 0.31 92 1005.4
20260507005008 59 224 4.0 8.0 0.00 0.31 0.31 92 1005.4
20260507004520 58 188 2.0 7.0 0.00 0.31 0.31 92 1005.5
20260507003025 58 197 4.0 7.0 0.06 0.31 0.31 91 1005.5
20260507002506 58 179 4.0 7.0 0.07 0.31 0.31 91 1005.5
20260507001003 58 225 4.0 10.0 0.09 0.31 0.31 91 1005.4
20260507000503 59 157 5.0 10.0 0.10 0.31 0.31 91 1005.4
20260507000014 59 218 5.0 9.0 0.11 0.31 0.31 91 1005.3
20260506235504 59 171 4.0 9.0 0.12 0.31 0.31 90 1005.4
20260506235008 59 198 3.0 9.0 0.13 0.31 0.31 90 1005.3
20260506234521 59 208 5.0 9.0 0.14 0.31 0.31 90 1005.4
20260506234006 60 196 5.0 11.0 0.14 0.30 0.30 90 1005.4
20260506233509 60 202 3.0 11.0 0.12 0.28 0.28 90 1005.3
20260506232011 60 198 6.0 9.0 0.09 0.24 0.24 90 1005.6
20260506225505 60 167 5.0 11.0 0.05 0.19 0.19 90 1005.7
20260506225003 60 212 5.0 11.0 0.04 0.18 0.18 91 1005.7
20260506224006 57 226 2.0 5.0 0.03 0.16 0.16 90 1005.8